Date String (YYYY-MM-DD hh:mm:ss) UTC,Instrument flags,Ambient pressure (hPa),Sample flow (lpm),Bypass flow (lpm),Sample temperature (°C),Ambient temperature (°C),ASC tube jacket temperature (°C),LED temperature (°C),Box temperature (°C),Sample RH (%),Span deviation,Mass concentration (μg/m³),Mass concentration (μg/m³),Mass concentration (μg/m³)
DateTimeUTC,F1_M11,P_M11,Q1_M11,Q2_M11,T1_M11,T2_M11,T3_M11,T4_M11,T5_M11,U1_M11,ZSPAN_M11,X0_M11,X2_M11,X1_M11
2022-05-03 11:00:00,,0822.4,5.01,0.00,23.4,22.6,00.0,32.3,25.1,21.7,0001.5,0008.50,0007.44,0007.33
2022-05-03 11:01:00,,0822.3,4.99,0.00,23.4,22.6,00.0,32.3,25.2,21.7,0001.1,0008.50,0007.43,0007.32
2022-05-03 11:02:00,,0822.3,5.01,0.00,23.4,22.6,00.0,32.3,25.1,21.7,0001.2,0008.42,0007.39,0007.31
2022-05-03 11:03:00,,0822.3,4.99,0.00,23.4,22.6,00.0,32.3,25.1,21.7,0001.2,0008.42,0007.39,0007.32
2022-05-03 11:04:00,,0822.3,4.99,0.00,23.4,22.6,00.0,32.3,25.2,21.7,0000.7,0008.45,0007.42,0007.35
2022-05-03 11:05:00,,0822.4,5.00,0.00,23.4,22.6,00.0,32.3,25.2,21.7,0000.8,0008.48,0007.44,0007.37
2022-05-03 11:06:00,,0822.3,5.01,0.00,23.4,22.6,00.0,32.3,25.1,21.7,0000.6,0008.52,0007.46,0007.39
2022-05-03 11:07:00,,0822.3,4.99,0.00,23.4,22.6,00.0,32.3,25.2,21.7,0000.2,0008.58,0007.49,0007.42
2022-05-03 11:08:00,,0822.3,5.00,0.00,23.4,22.6,00.0,32.3,25.2,21.7,-000.3,0008.63,0007.54,0007.47
2022-05-03 11:09:00,,0822.3,5.00,0.00,23.4,22.6,00.0,32.3,25.2,21.7,-000.4,0008.58,0007.55,0007.48
2022-05-03 11:10:00,,0822.4,4.99,0.00,23.4,22.6,00.0,32.3,25.2,21.7,-000.1,0008.57,0007.55,0007.48
2022-05-03 11:11:00,,0822.3,5.01,0.00,23.4,22.6,00.0,32.3,25.2,21.7,-000.3,0008.53,0007.55,0007.49
2022-05-03 11:12:00,,0822.3,5.00,0.00,23.4,22.6,00.0,32.3,25.2,21.7,-000.2,0008.53,0007.56,0007.51
2022-05-03 11:13:00,,0822.3,4.98,0.00,23.4,22.6,00.0,32.3,25.2,21.7,-000.1,0008.58,0007.60,0007.55
2022-05-03 11:14:00,,0822.3,5.02,0.00,23.4,22.6,00.0,32.3,25.2,21.7,-000.4,0008.62,0007.63,0007.57
2022-05-03 11:15:00,,0822.3,4.99,0.00,23.4,22.6,00.0,32.3,25.2,21.7,-000.4,0008.61,0007.64,0007.58
2022-05-03 11:16:00,,0822.3,5.00,0.00,23.4,22.6,00.0,32.3,25.2,21.7,-001.1,0008.63,0007.65,0007.60
2022-05-03 11:17:00,,0822.4,5.01,0.00,23.4,22.6,00.0,32.3,25.2,21.7,-001.1,0008.65,0007.66,0007.60
2022-05-03 11:18:00,,0822.3,5.00,0.00,23.4,22.6,00.0,32.3,25.2,21.7,-001.2,0008.63,0007.65,0007.59
2022-05-03 11:19:00,,0822.3,5.00,0.00,23.4,22.6,00.0,32.3,25.2,21.7,-001.2,0008.59,0007.62,0007.57
2022-05-03 11:20:00,,0822.3,5.00,0.00,23.4,22.6,00.0,32.3,25.2,21.7,-001.2,0008.59,0007.62,0007.57
2022-05-03 11:21:00,,0822.3,5.01,0.00,23.4,22.6,00.0,32.3,25.2,21.7,-001.4,0008.61,0007.63,0007.57
2022-05-03 11:22:00,,0822.3,5.00,0.00,23.4,22.6,00.0,32.4,25.2,21.7,-001.5,0008.63,0007.64,0007.58
2022-05-03 11:23:00,,0822.3,4.99,0.00,23.4,22.6,00.0,32.4,25.2,21.7,-001.6,0008.67,0007.65,0007.59
2022-05-03 11:24:00,,0822.3,5.01,0.00,23.5,22.6,00.0,32.4,25.3,21.7,-001.8,0008.68,0007.64,0007.58
2022-05-03 11:25:00,,0822.3,4.99,0.00,23.4,22.6,00.0,32.4,25.2,21.8,-001.9,0009.12,0007.66,0007.59
2022-05-03 11:26:00,,0822.3,4.99,0.00,23.5,22.6,00.0,32.4,25.2,21.8,-001.9,0009.18,0007.67,0007.59
2022-05-03 11:27:00,,0822.4,5.01,0.00,23.5,22.6,00.0,32.4,25.2,21.8,-001.8,0009.19,0007.68,0007.60
2022-05-03 11:28:00,,0822.3,4.99,0.00,23.5,22.6,00.0,32.4,25.2,21.8,-002.0,0009.20,0007.69,0007.61
2022-05-03 11:29:00,,0822.3,5.00,0.00,23.5,22.6,00.0,32.4,25.3,21.7,-001.9,0009.22,0007.69,0007.62
2022-05-03 11:30:00,,0822.3,5.01,0.00,23.5,22.6,00.0,32.4,25.3,21.8,-001.8,0009.28,0007.74,0007.65
2022-05-03 11:31:00,,0822.4,4.99,0.00,23.5,22.6,00.0,32.4,25.2,21.8,-001.9,0009.32,0007.76,0007.67
2022-05-03 11:32:00,,0822.3,5.01,0.00,23.5,22.6,00.0,32.4,25.3,21.8,-001.8,0009.38,0007.80,0007.70
2022-05-03 11:33:00,,0822.3,4.99,0.00,23.5,22.6,00.0,32.4,25.3,21.7,-001.7,0009.42,0007.83,0007.73
2022-05-03 11:34:00,,0822.3,5.00,0.00,23.5,22.6,00.0,32.4,25.3,21.7,-001.6,0009.44,0007.84,0007.74
2022-05-03 11:35:00,,0822.3,5.01,0.00,23.5,22.6,00.0,32.4,25.3,21.7,-001.4,0009.41,0007.83,0007.73
2022-05-03 11:36:00,,0822.3,4.99,0.00,23.5,22.6,00.0,32.4,25.3,21.7,-001.2,0009.03,0007.81,0007.73
2022-05-03 11:37:00,,0822.3,5.00,0.00,23.5,22.6,00.0,32.4,25.3,21.7,-001.1,0008.94,0007.82,0007.74
2022-05-03 11:38:00,,0822.3,5.00,0.00,23.5,22.6,00.0,32.4,25.3,21.7,-001.0,0008.95,0007.82,0007.74
2022-05-03 11:39:00,,0822.3,5.01,0.00,23.5,22.6,00.0,32.4,25.3,21.7,-000.5,0008.99,0007.84,0007.76
2022-05-03 11:40:00,,0822.3,5.00,0.00,23.5,22.7,00.0,32.4,25.3,21.7,-000.6,0009.03,0007.88,0007.79
2022-05-03 11:41:00,,0822.3,4.99,0.00,23.5,22.6,00.0,32.4,25.3,21.7,-000.6,0009.03,0007.89,0007.81
2022-05-03 11:42:00,,0822.3,5.01,0.00,23.5,22.6,00.0,32.4,25.3,21.7,-000.9,0009.09,0007.92,0007.84
2022-05-03 11:43:00,,0822.2,4.99,0.00,23.5,22.6,00.0,32.4,25.3,21.6,-000.8,0009.09,0007.93,0007.85
2022-05-03 11:44:00,,0822.2,5.01,0.00,23.5,22.6,00.0,32.4,25.3,21.6,-000.7,0009.14,0007.95,0007.87
2022-05-03 11:45:00,,0822.2,4.99,0.00,23.5,22.6,00.0,32.4,25.3,21.6,-000.4,0009.19,0007.97,0007.89
2022-05-03 11:46:00,,0822.3,5.00,0.00,23.5,22.6,00.0,32.4,25.3,21.6,-000.1,0009.83,0008.02,0007.94
2022-05-03 11:47:00,,0822.2,5.01,0.00,23.5,22.6,00.0,32.4,25.3,21.6,-000.2,0009.98,0008.09,0007.99
2022-05-03 11:48:00,,0822.2,4.99,0.00,23.5,22.6,00.0,32.4,25.3,21.6,-000.1,0010.08,0008.16,0008.05
2022-05-03 11:49:00,,0822.2,5.00,0.00,23.5,22.6,00.0,32.4,25.3,21.6,0000.1,0010.19,0008.22,0008.11
2022-05-03 11:50:00,,0822.2,4.99,0.00,23.5,22.6,00.0,32.4,25.3,21.6,0000.1,0010.35,0008.28,0008.16
2022-05-03 11:51:00,,0822.2,5.01,0.00,23.5,22.6,00.0,32.4,25.3,21.6,0000.2,0010.44,0008.32,0008.20
2022-05-03 11:52:00,,0822.2,4.99,0.00,23.5,22.7,00.0,32.4,25.3,21.6,0000.6,0010.91,0008.33,0008.21
2022-05-03 11:53:00,,0822.2,5.01,0.00,23.5,22.7,00.0,32.4,25.3,21.6,0000.9,0011.22,0008.37,0008.23
2022-05-03 11:54:00,,0822.2,5.00,0.00,23.5,22.6,00.0,32.4,25.3,21.6,0001.1,0011.30,0008.39,0008.25
2022-05-03 11:55:00,,0822.2,5.00,0.00,23.5,22.6,00.0,32.4,25.3,21.7,0001.2,0011.28,0008.39,0008.25
2022-05-03 11:56:00,,0822.3,5.00,0.00,23.5,22.6,00.0,32.4,25.3,21.6,0001.0,0011.27,0008.38,0008.25
2022-05-03 11:57:00,,0822.3,5.01,0.00,23.5,22.6,00.0,32.4,25.3,21.6,0000.9,0010.73,0008.37,0008.24
2022-05-03 11:58:00,,0822.3,4.99,0.00,23.5,22.6,00.0,32.4,25.3,21.6,0000.9,0010.56,0008.31,0008.20
2022-05-03 11:59:00,,0822.3,5.01,0.00,23.5,22.6,00.0,32.4,25.3,21.6,0000.8,0010.47,0008.26,0008.15
